Location: *
(45.2972°S, 163.5983°W)
Time: 12:48:56
(UTC+00:00)

Daily predictions for brighter satellites

Satellite Brightness Start Highest point End
(mag) Time Altitude Azimuth Time Altitude Azimuth Time Altitude Azimuth
Cosmos 2263 Rocket 4.2 15:07:39 20° SSE 15:09:34 24° SE 15:14:07 10° E
NOSS 3-1 (C) 3.9 15:18:58 50° NE 15:18:58 50° NE 15:22:54 10° NE
USA 267 3.9 15:18:20 10° ESE 15:24:44 50° NE 15:27:13 34° N
Atlas Centaur 2 4.2 15:27:05 27° NNW 15:28:25 28° N 15:35:02 10° NE
CZ-4C R/B 4.0 15:35:01 26° S 15:35:01 26° S 15:38:57 10° SSE
Cosmos 1980 Rocket 2.7 15:32:43 39° NNE 15:34:32 56° ENE 15:40:04 10° SSE
USA 229 DEB 3.5 15:35:51 80° SW 15:36:17 89° NW 15:42:49 10° NE
USA 229 3.5 15:35:57 80° SW 15:36:24 90° WNW 15:42:55 10° NE
Cosmos 1763 Rocket 4.0 15:35:44 50° NNE 15:36:42 59° ENE 15:41:55 10° SSE
Okean O Rocket 2.6 15:32:54 10° NE 15:37:11 46° ESE 15:37:18 46° ESE
Cosmos 2369 4.0 15:38:47 59° SSE 15:38:47 59° SSE 15:43:25 10° SSE
BREEZE-M R/B 4.4 15:38:53 59° SSW 15:39:45 64° S 15:51:55 10° E
PAYLOAD B 4.1 15:39:29 10° NNE 15:45:02 88° ESE 15:45:23 80° S
Cosmos 1898 Rocket 3.5 15:45:46 82° ENE 15:45:46 82° ENE 15:50:58 10° NNE
NOSS 3-1 (A) 3.3 15:47:29 65° SSW 15:48:25 82° SE 15:53:57 10° NE
Cosmos 468 Rocket 3.9 15:50:36 86° SE 15:50:36 86° SE 15:55:48 10° SSE
Aureole 3 Rocket 4.1 15:50:04 36° SE 15:50:51 40° E 15:55:13 10° NNE
Cosmos 2026 Rocket 4.2 15:45:46 10° N 15:51:51 70° E 15:58:08 10° SSE
NOSS 2-3 (C) 4.4 15:51:02 55° SSW 15:52:38 85° SE 15:58:04 10° NE
Cosmos 2278 3.6 15:56:07 57° NNW 15:57:22 86° WSW 16:03:08 10° SSE
SL-16 R/B 4.3 15:54:50 10° NNE 15:59:32 27° ENE 16:04:15 10° SE
Cosmos 540 Rocket 4.4 15:54:55 10° N 15:59:53 47° ENE 16:04:55 10° SSE
USA 234 3.7 15:53:37 10° ENE 16:00:03 57° SSE 16:02:51 34° SSW
Cosmos 1697 Rocket 3.1 16:02:53 46° SSW 16:02:53 46° SSW 16:07:27 10° SSE
SMAP 3.5 15:59:20 10° NNE 16:03:58 63° ESE 16:07:02 21° S
Cosmos 1092 Rocket 3.8 15:58:39 10° NNW 16:04:51 72° W 16:11:07 10° S
BREEZE-M DEB (TANK) 4.2 16:06:47 17° NNE 16:06:47 17° NNE 16:07:44 10° NNE
Cosmos 841 Rocket 4.1 16:00:30 10° N 16:05:39 57° ENE 16:10:54 10° SSE
ATLAS 2AS CENTAUR R/B 4.4 16:04:40 13° SSW 16:06:45 15° S 16:10:26 10° SE
CZ-4 R/B 4.3 16:05:33 10° E 16:08:07 16° ESE 16:10:41 10° SSE
CZ-4B R/B 3.1 16:03:17 10° NNE 16:08:52 82° WNW 16:12:45 22° SSW
Timation 1 Rocket 4.2 16:08:50 38° SSW 16:11:20 84° WNW 16:17:22 10° NNE
Cosmos 1689 Rocket 3.8 16:08:47 10° SSE 16:11:39 34° E 16:14:29 10° NNE
Radarsat Rocket 4.2 16:06:39 10° N 16:13:59 73° WNW 16:20:00 13° SSW
Cosmos 1953 2.3 16:14:22 64° S 16:14:57 84° E 16:18:59 10° N
Lacrosse 5 rocket 3.2 16:16:13 18° S 16:16:13 18° S 16:18:09 10° SSE
Cosmos 1937 Rocket 3.3 16:15:37 48° SW 16:17:03 73° WNW 16:22:13 10° NNE
Cosmos 1908 4.4 16:17:15 11° S 16:20:47 42° ESE 16:24:28 10° NNE
Cosmos 1025 Rocket 3.6 16:23:13 41° SSW 16:23:13 41° SSW 16:26:15 10° S
YAOGAN 6 2.6 16:18:23 10° NNE 16:21:59 76° ESE 16:22:43 54° S
Cosmos 1241 Rocket 4.5 16:20:33 28° NW 16:24:06 65° SW 16:30:37 10° SSE
ADEOS Rocket 3.6 16:19:24 10° SSE 16:24:50 51° E 16:30:19 10° N
Meteor 2-13 Rocket 4.4 16:19:41 10° NNW 16:25:47 65° W 16:32:01 10° S
ASTEX 1 4.1 16:23:09 10° NNE 16:27:57 55° E 16:32:49 10° S
SJ 16-02 3.4 16:30:57 15° NNW 16:30:57 15° NNW 16:31:53 10° NNW
NOAA 6 4.4 16:25:47 10° NNW 16:30:36 40° W 16:30:46 39° W
COSMO-SKYMED 1 4.3 16:27:56 10° SSE 16:32:00 34° E 16:36:01 10° NNE
AQUARIUS 4.1 16:27:50 10° N 16:32:22 78° WNW 16:35:53 17° SSW
Cosmos 2227 4.1 16:30:35 22° SSW 16:34:24 84° WNW 16:40:05 10° NNE
Meteor 1-16 Rocket 4.2 16:31:41 10° SSW 16:37:35 78° W 16:43:13 10° N
ATLAS CENTAUR R/B 3.8 16:35:12 11° SSW 16:38:44 21° SE 16:42:26 10° E
IRS-1C Rocket 4.3 16:33:49 10° NNE 16:39:05 72° ESE 16:44:25 10° S
Cosmos 2322 Rocket 3.3 16:34:00 10° N 16:39:26 46° ENE 16:44:55 10° SE
Radarsat 4.5 16:36:56 10° N 16:42:09 69° WNW 16:47:26 10° SSW
Cosmos 1536 Rocket 3.8 16:38:50 10° NNW 16:43:00 44° WSW 16:47:15 10° S
Cosmos 1726 2.7 16:43:50 38° WNW 16:43:50 38° WNW 16:46:55 10° NNW
Meteor 2-8 Rocket 4.4 16:40:19 10° S 16:46:30 81° W 16:52:39 10° N
Aureole 3 3.7 16:42:09 10° S 16:46:57 71° E 16:50:39 10° NNE
Cosmos 1674 2.5 16:45:49 10° NNW 16:49:34 79° W 16:53:26 10° S
Helios 1A Rocket 2.8 16:49:05 10° N 16:53:11 80° WNW 16:57:23 10° SSW
Cosmos 2263 Rocket 2.2 16:49:22 16° SSW 16:54:01 67° WNW 16:59:40 10° NNE
Cosmos 1553 Rocket 4.0 16:47:43 10° SSW 16:54:07 64° W 17:00:23 10° N
Envisat 3.4 16:51:23 10° NNW 16:56:12 42° W 17:01:07 10° SSW
NOAA 12 4.2 16:53:18 10° N 16:58:27 53° W 17:03:39 10° SSW
Cosmos 1606 Rocket 3.5 16:54:50 10° S 16:59:16 87° E 17:03:37 10° N
Cosmos 2298 Rocket 4.0 16:54:01 10° SSW 16:59:25 87° WNW 17:04:45 10° NNE
In-Cosmos 22 4.4 16:58:12 10° NNW 17:03:29 46° WSW 17:08:44 10° S
Cosmos 1461 3.7 17:03:00 25° W 17:03:54 28° WNW 17:07:14 10° N
S3M 3.9 17:01:17 10° SSW 17:07:26 68° W 17:13:31 10° N
USA 267 3.4 17:01:20 10° SE 17:07:50 61° SSW 17:14:18 10° WNW
NOAA 11 4.2 17:02:22 10° NNE 17:07:55 88° WNW 17:13:33 10° SSW
Cosmos 1437 2.9 17:06:12 10° NNW 17:09:08 43° WSW 17:12:06 10° S
ATLAS 5 CENTAUR R/B 3.0 17:02:06 10° NNW 17:09:16 72° NE 17:15:54 10° SE
Cosmos 2285 Rocket 4.1 17:03:24 10° SSW 17:09:51 65° WNW 17:16:13 10° N
Cosmos 2360 Rocket 3.5 17:05:13 10° N 17:10:32 44° ENE 17:15:54 10° SE
Cosmos 2208 Rocket 4.2 17:05:37 10° NW 17:10:38 47° WSW 17:15:43 10° S
Cosmos 1814 Rocket 4.2 17:07:47 10° NW 17:12:55 49° WSW 17:18:11 10° SSE
Okean O Rocket 3.0 17:10:28 10° NW 17:13:46 20° W 17:14:45 18° WSW
H-2A R/B 3.9 17:10:06 10° ENE 17:14:19 28° ESE 17:18:36 10° S
Cosmos 1980 Rocket 3.1 17:14:37 12° WNW 17:18:54 27° SW 17:23:39 10° S
SKYMED 2 3.5 17:15:44 10° S 17:20:10 75° WSW 17:24:32 10° NNW
ARGOS Delta rocket 4.3 17:16:41 10° NNW 17:21:24 41° W 17:25:55 10° SSW
CZ-4C R/B 4.3 17:20:13 10° SW 17:24:01 15° S 17:27:32 10° SSE
Cosmos 1726 Rocket 3.6 17:22:09 10° SSW 17:26:30 61° W 17:30:47 10° N
Okean 1-7 Rocket 3.7 17:23:02 10° N 17:27:30 83° E 17:32:05 10° S
CREW DRAGON DEMO-1 DEB 4.0 17:27:28 10° NW 17:30:27 45° NE 17:33:29 10° ESE
Cosmos 1844 Rocket 3.4 17:25:09 10° SSW 17:30:50 57° ESE 17:36:26 10° NE
CZ-2C R/B 4.2 17:27:09 10° NE 17:32:02 46° ESE 17:37:16 10° S
Cosmos 1939 Rocket 3.1 17:35:26 10° N 17:39:25 52° W 17:43:31 10° SSW
CSL-04 Rocket 3.9 17:34:26 10° NNE 17:39:52 78° ESE 17:45:26 10° SSW
HJ-1C 4.3 17:37:25 10° NNE 17:40:40 50° ESE 17:43:58 10° S
Cosmos 540 Rocket 4.4 17:37:23 10° WNW 17:41:44 26° WSW 17:46:06 10° S
Cosmos 1689 Rocket 4.1 17:41:13 10° SW 17:42:34 12° WSW 17:43:55 10° W
CZ-4 R/B 1.6 17:38:28 10° N 17:42:38 58° W 17:46:54 10° SSW
USA 234 3.6 17:36:38 10° NNE 17:43:03 55° NW 17:49:33 10° WSW
SL-16 R/B 2.4 17:37:47 10° NW 17:43:20 50° WSW 17:48:54 10° SSE
CSL-04 Debris 4.3 17:40:08 10° NNE 17:45:35 89° ESE 17:51:05 10° SSW
Cosmos 1626 2.5 17:42:12 10° NNW 17:45:48 43° WSW 17:49:28 10° S
Cosmos 1697 Rocket 4.5 17:45:10 10° WSW 17:47:17 12° SW 17:49:24 10° SSW
Okean-O 3.2 17:44:06 10° NNW 17:48:18 40° W 17:52:35 10° SSW
Cosmos 2228 4.0 17:46:11 10° SSW 17:49:51 27° W 17:53:27 10° NNW
Cosmos 2278 Rocket 4.2 17:47:21 10° S 17:51:47 22° SE 17:56:12 10° E
SL-14 R/B 3.7 17:48:17 10° NNW 17:52:02 42° WSW 17:55:50 10° S
Cosmos 2333 Rocket 4.1 17:47:02 10° N 17:52:15 37° ENE 17:57:28 10° SE
Orbus 7S? 4.2 17:50:49 10° WNW 17:54:13 49° SSW 18:01:28 10° SE
CZ-2D R/B 3.8 17:50:44 10° N 17:54:26 41° W 17:58:14 10° SSW
Lacrosse 5 rocket 3.3 17:52:50 10° SW 17:55:25 16° S 17:58:06 10° SE
Cosmos 2098 Rocket 4.2 17:51:24 10° NNW 17:56:54 49° WSW 18:03:38 10° S
Cosmos 1125 Rocket 3.9 17:53:26 10° SSW 17:58:30 46° WNW 18:03:29 10° N
ATLAS 2AS CENTAUR R/B 4.0 17:54:13 10° SSW 17:59:53 30° SE 18:05:53 10° E
